Temp
25 27 29 31 33 36 36 35 36 35 34 35 35 35 31 31 30 26 23 22 21 21 21 20 21 21 21 21 21 21 21 21 20 20 20 20 20 20 20 20 20 20 20 20 20 20 20 20 20
25 29 30 34 34 36 36 35 35 35 34 34 34 34 32 26 26 23 21 20 21 21 20 19 18 20 20 20 20 20 20 21 21 20 20 20 20 19 19 19 19 19 19 20 19 19 19 19 19
25 29 33 35 36 36 35 36 34 33 33 34 33 33 30 25 20 18 19 20 20 20 19 18 18 19 19 19 19 20 20 20 20 20 20 20 20 20 19 19 19 19 19 19 19 19 19 19 19
30 34 35 34 36 34 35 35 34 34 34 35 33 27 23 18 18 17 20 21 21 20 18 17 18 18 18 19 19 19 19 19 19 19 19 19 19 19 19 19 19 19 19 19 19 19 19 19 19
31 35 34 35 34 34 35 35 34 34 33 34 33 29 24 17 16 18 21 21 21 20 18 17 18 18 18 18 18 18 18 18 19 19 19 19 19 19 19 19 19 19 19 19 19 19 19 19 19
33 35 34 34 34 33 34 34 34 34 33 32 31 28 23 17 17 18 19 19 18 18 18 17 17 17 18 18 18 18 18 18 18 18 18 19 19 19 19 19 19 19 19 19 19 19 19 19 18
33 34 34 35 33 33 32 34 33 33 31 30 32 29 23 19 17 18 19 18 17 16 16 16 16 17 17 17 17 17 17 17 17 17 17 19 18 19 19 19 19 18 19 19 19 19 19 19 19
33 34 34 34 33 33 32 32 33 33 29 28 29 29 25 20 19 20 19 18 17 16 15 15 15 16 17 17 16 16 15 15 16 16 16 17 18 18 18 19 18 18 18 18 18 18 19 19 19
33 33 34 34 33 33 32 31 31 31 29 27 26 27 23 20 21 21 21 20 19 17 15 14 14 15 16 17 16 17 16 16 16 16 16 17 16 17 17 17 17 18 18 18 19 19 19 18 18
32 33 34 35 34 33 32 32 30 30 27 25 23 22 22 22 23 23 22 20 18 17 16 15 13 13 16 16 16 17 17 16 16 14 15 16 17 17 17 17 18 17 17 18 19 18 19 18 19
33 32 33 32 33 33 32 32 32 32 30 27 25 23 23 23 22 21 20 19 17 16 15 15 14 13 14 15 16 16 16 16 16 14 13 15 16 16 17 18 18 19 18 17 17 17 17 17 18
30 31 32 32 31 31 32 32 30 30 29 29 26 24 23 23 22 20 19 18 17 16 15 14 14 13 13 15 15 16 16 15 15 14 12 13 15 14 15 16 17 18 18 17 18 17 16 17 16
30 31 31 31 30 31 31 30 29 26 26 25 24 23 22 21 20 19 18 18 17 16 15 14 13 13 13 13 14 14 15 14 14 13 12 11 13 12 13 15 16 16 16 16 16 17 17 17 16
30 30 30 31 30 30 29 28 28 25 24 23 22 22 21 21 19 18 18 18 17 15 14 14 13 13 13 13 13 14 13 14 14 13 11 10 11 11 12 14 14 15 14 14 14 15 16 17 17
29 28 29 30 30 30 29 28 27 25 23 22 22 21 21 20 19 19 18 17 16 15 14 14 13 12 12 12 13 13 13 13 13 12 11 9 9 10 10 12 13 13 12 13 14 14 15 15 16
27 28 28 31 30 30 29 28 29 25 24 23 22 21 20 20 18 17 17 16 15 14 14 13 12 12 12 12 12 12 12 13 12 12 11 9 9 9 9 11 11 10 11 12 13 13 13 13 14
28 28 29 30 30 30 28 29 26 25 24 24 22 21 20 19 18 17 16 16 15 13 13 12 11 11 11 12 12 12 12 12 12 11 10 9 9 8 9 10 10 9 11 11 11 11 11 11 12
28 29 29 30 29 29 29 28 25 24 24 24 23 22 21 19 18 16 15 14 14 12 12 12 11 11 12 12 13 13 13 12 11 11 9 9 8 8 8 9 9 9 9 9 9 8 9 9 11
28 28 29 31 30 28 28 29 26 24 24 24 24 23 21 20 18 16 15 14 13 12 12 11 11 10 12 12 12 12 12 12 11 10 9 8 8 7 7 8 8 8 8 7 8 7 8 8 9
27 26 27 29 29 26 28 28 29 25 24 25 24 23 22 21 18 16 14 14 13 12 12 11 11 10 10 11 11 10 11 11 11 10 9 8 7 7 7 7 7 6 6 6 6 6 6 6 6
26 26 27 28 29 27 27 27 28 26 25 25 24 24 23 21 18 16 15 14 13 12 11 11 11 10 9 9 10 10 11 11 11 10 9 8 7 7 6 6 6 6 5 5 4 4 3 3 4
25 27 27 27 26 26 28 26 30 27 24 24 24 23 22 21 19 17 16 14 13 12 11 11 10 10 9 8 9 9 10 10 9 9 9 8 8 7 6 6 5 5 5 3 2 2 2 2 3
25 25 25 26 26 26 27 25 28 29 24 24 23 23 22 21 19 18 16 15 13 12 11 10 10 9 8 8 8 8 8 8 8 8 7 8 7 7 6 6 5 5 4 2 1 1 2 2 2
25 24 24 25 25 24 26 26 28 28 26 25 24 23 21 20 19 18 16 15 13 11 10 10 10 9 8 8 7 7 7 6 7 7 7 7 7 6 5 4 4 3 3 1 1 1 1 1 1
24 23 23 23 23 23 28 27 27 26 27 27 25 23 21 20 19 18 17 15 13 11 11 10 10 9 8 7 7 6 6 6 6 6 6 5 6 5 5 4 2 2 2 1 0 1 1 1 1
23 24 23 23 24 26 28 24 27 26 25 23 25 24 21 20 19 18 17 15 14 12 11 10 10 9 8 7 6 6 6 6 6 5 5 5 5 4 4 2 1 2 2 1 -0 0 1 1 0
24 22 25 23 24 22 25 27 24 24 23 22 22 22 20 20 19 18 17 15 13 11 10 9 9 9 8 7 6 6 5 5 4 4 4 4 4 3 3 1 1 1 1 0 0 1 1 -0 -1
24 25 21 22 19 21 24 25 26 23 22 21 21 21 20 20 19 18 17 14 12 11 9 8 8 8 7 6 5 5 4 4 3 4 4 3 3 3 2 1 0 1 1 0 0 0 -1 -1 -1
21 21 22 23 22 21 22 24 27 26 24 22 21 21 21 20 18 17 16 13 12 11 9 8 7 7 6 5 4 4 3 3 3 3 3 2 2 2 1 0 -0 0 -0 -1 -1 -1 -1 -2 -2
20 22 21 19 20 21 21 22 24 24 24 23 22 21 21 19 18 17 15 12 11 10 9 8 6 6 5 4 3 3 3 3 3 2 2 1 2 1 1 0 -1 -1 -2 -1 -1 -2 -3 -3 -3
Height
766 764 762 758 764 740 735 745 730 744 744 735 731 735 756 757 766 805 805 803 798 798 800 800 800 801 800 800 801 803 803 803 804 804 804 804 803 803 803 801 800 800 799 797 797 797 797 796 795
766 763 759 743 757 746 742 738 741 740 743 737 740 745 756 782 781 795 801 802 801 802 803 803 803 802 803 802 803 804 803 803 804 804 805 805 805 805 805 803 803 802 801 800 798 798 798 797 797
763 761 751 739 736 741 743 736 741 748 745 743 752 752 765 789 799 805 806 805 805 805 805 803 804 805 805 805 804 805 804 804 805 804 805 805 805 805 805 805 804 803 802 801 800 800 799 798 797
760 750 741 750 738 743 737 738 745 749 744 740 752 778 791 808 808 810 807 806 806 808 808 806 805 806 806 806 805 805 805 805 805 805 805 805 805 806 805 804 803 804 803 802 801 800 799 799 798
756 742 746 743 744 746 738 737 741 746 750 751 751 775 792 810 811 811 809 808 809 810 810 809 809 808 808 807 807 807 806 806 806 806 805 805 805 805 804 804 803 803 802 802 801 800 799 798 798
752 739 751 749 750 750 745 743 745 746 756 758 766 778 799 812 812 813 812 812 813 813 813 813 813 811 809 809 808 808 807 806 806 805 805 805 804 804 803 802 802 802 801 800 800 799 798 797 797
754 745 745 736 752 755 754 741 748 752 763 772 763 777 800 810 813 813 814 814 814 814 814 814 815 815 812 811 810 809 808 808 807 806 805 804 803 803 802 801 800 800 799 799 799 798 797 796 795
749 744 746 741 755 756 752 752 748 750 772 774 773 777 795 807 811 813 814 816 816 816 814 814 814 814 815 815 812 811 811 810 809 807 806 804 803 802 801 801 800 798 797 797 796 796 795 794 793
745 755 747 743 748 748 750 760 757 758 770 780 782 782 795 805 808 810 812 815 816 817 817 816 815 815 816 817 815 815 813 812 812 810 807 807 805 802 800 798 798 796 796 795 794 793 792 792 791
752 748 736 727 733 744 751 753 762 768 778 788 792 797 801 803 805 807 811 816 818 819 818 818 816 816 817 817 818 817 816 815 814 811 809 808 807 805 803 800 798 796 794 793 792 790 789 788 788
746 751 737 742 738 740 750 752 751 757 768 778 790 796 800 804 808 812 816 818 820 821 820 820 819 817 817 818 819 819 818 817 816 813 810 810 809 806 805 802 800 798 795 793 791 788 787 786 785
764 748 746 743 751 751 751 751 763 760 769 771 786 795 801 805 810 815 818 819 822 821 822 821 820 820 819 820 820 820 819 818 817 815 812 811 810 807 806 804 802 799 797 795 792 790 787 785 783
760 749 751 750 755 753 751 758 764 779 780 784 792 798 803 810 814 817 819 821 822 824 824 823 822 822 822 821 822 821 821 820 819 817 815 813 812 810 808 805 803 801 799 796 793 790 787 784 782
754 753 752 749 753 754 763 766 770 783 787 792 796 801 806 810 814 817 818 820 822 824 825 825 824 823 823 823 823 823 822 822 821 820 817 815 813 811 809 807 804 802 800 797 794 791 787 784 781
759 765 755 752 749 753 758 765 771 775 786 793 797 802 807 812 815 818 820 821 823 824 826 826 825 825 825 825 825 825 825 824 823 822 820 817 815 813 810 808 805 803 800 798 794 791 787 783 780
765 760 763 738 745 747 758 763 755 775 782 789 795 802 806 811 815 819 821 823 825 826 828 828 828 827 827 826 826 826 825 825 824 822 821 819 817 814 812 809 806 804 801 798 795 791 788 784 780
756 764 750 744 738 743 758 756 762 772 779 783 791 797 802 810 815 818 821 823 826 828 829 829 830 829 828 828 827 827 826 825 824 823 822 820 818 815 812 810 808 805 801 798 796 793 790 785 780
755 751 745 739 742 744 750 755 766 770 774 776 784 790 798 806 810 817 820 822 825 827 828 829 829 829 828 828 827 827 827 826 825 824 823 821 819 816 813 811 809 806 803 799 797 794 790 787 780
747 750 744 728 729 746 747 743 757 767 771 771 777 783 791 800 808 816 820 823 824 827 828 829 829 829 828 828 828 828 827 826 825 824 823 822 819 817 815 813 810 807 804 801 798 794 790 786 782
751 757 751 734 732 754 743 741 734 756 764 765 770 777 785 795 808 815 820 822 824 826 827 828 829 829 829 829 829 829 828 827 826 825 823 822 820 818 816 814 811 808 805 802 799 796 792 789 786
755 754 748 744 733 747 747 744 738 744 756 760 762 768 779 789 803 812 817 820 823 826 827 827 828 829 830 829 829 829 827 826 825 825 823 822 819 818 816 814 812 809 806 803 801 798 795 790 787
760 740 745 744 749 755 732 749 717 732 751 756 759 764 772 783 796 807 813 817 820 824 826 827 828 829 830 830 830 829 828 827 826 824 822 820 819 817 816 814 812 810 807 805 802 799 796 792 787
754 747 749 747 747 743 736 751 721 714 744 747 750 758 766 777 789 798 807 812 817 820 823 825 827 828 830 831 831 830 829 828 826 825 823 821 818 817 816 814 811 810 808 805 802 798 794 791 789
745 756 753 750 750 756 738 738 719 713 723 734 742 752 762 774 785 794 802 810 816 820 822 824 826 828 829 830 830 830 829 828 826 825 824 821 819 817 815 814 811 810 808 805 801 797 793 790 787
751 758 765 765 758 751 717 725 715 712 713 718 729 745 758 770 780 789 797 807 812 817 820 823 825 827 828 828 829 830 829 828 826 826 824 822 819 817 815 813 812 809 806 803 800 795 791 788 785
746 747 748 754 744 727 702 731 713 709 716 726 725 736 754 763 773 783 792 801 807 813 817 820 822 824 826 827 829 829 828 826 825 824 823 822 820 817 815 812 811 808 805 801 798 794 789 786 783
736 747 730 745 737 749 726 702 713 717 723 732 735 739 752 760 768 778 788 796 805 811 815 818 821 822 824 826 827 827 826 826 824 823 821 820 818 817 814 813 810 806 803 800 797 792 787 784 781
730 728 752 746 764 755 725 719 711 720 723 729 734 741 749 756 765 775 784 795 803 808 813 816 818 821 823 824 825 825 824 823 824 821 820 820 818 815 813 812 809 805 801 798 795 790 785 782 779
738 744 738 733 733 742 736 714 690 699 711 720 727 735 743 751 761 772 781 794 801 806 810 814 817 819 821 822 822 821 822 822 821 822 819 818 817 814 812 811 807 803 800 797 793 788 784 781 776
733 727 735 750 744 732 734 718 705 710 710 718 726 732 739 751 761 770 781 792 799 803 808 812 815 817 820 820 822 821 822 823 818 819 818 816 815 813 811 809 806 803 799 796 792 788 784 780 774
Wind_Speed
11 10 9 8 7 9 4 5 7 10 7 5 4 15 21 21 12 11 10 12 15 17 14 10 8 6 6 6 5 4 4 3 4 4 4 3 3 3 3 2 2 2 2 2 3 2 1 2 2
9 10 10 8 9 11 7 6 9 14 12 15 14 13 13 10 12 8 10 17 16 12 13 12 11 8 6 6 5 3 3 3 2 2 4 5 4 4 5 5 5 4 4 3 3 3 3 4 4
10 11 10 7 11 10 10 8 14 14 9 9 10 14 8 8 12 5 11 8 11 13 12 14 13 10 8 7 6 4 3 2 2 2 2 3 5 5 5 6 6 6 5 6 6 6 6 6 6
7 8 6 10 10 8 12 13 14 13 9 4 15 12 10 9 3 6 7 5 10 11 13 12 12 11 10 8 7 5 3 2 2 2 3 4 5 6 6 6 6 8 7 7 7 9 9 9 8
13 8 12 12 6 4 4 11 12 13 8 8 11 10 9 8 7 7 8 9 9 10 12 13 11 11 9 9 8 7 5 4 3 3 3 4 5 5 6 7 8 8 9 8 9 10 11 11 10
8 5 10 9 9 5 7 9 8 8 8 10 16 13 8 6 7 8 9 11 11 11 11 12 14 14 10 8 7 6 4 3 3 3 3 5 6 6 7 7 9 11 11 11 11 12 13 13 12
13 8 15 3 9 10 9 8 10 11 11 9 5 8 7 9 7 9 11 12 13 13 13 12 12 13 15 13 9 8 7 5 4 4 5 5 6 7 8 9 9 11 13 14 15 15 15 15 14
9 7 10 7 10 11 8 6 2 8 10 6 9 7 10 14 11 11 11 13 14 14 14 13 13 13 12 11 16 15 15 14 13 11 9 7 7 9 10 10 8 12 13 14 15 16 17 18 18
9 9 10 9 9 12 12 12 5 6 13 8 6 14 16 18 15 14 12 11 12 15 15 15 15 14 13 12 13 14 16 17 16 15 16 14 12 12 11 10 11 11 11 15 17 18 18 19 20
11 10 7 5 4 11 13 11 12 10 12 10 14 14 16 16 13 11 10 11 12 14 15 15 15 15 13 12 13 12 13 13 15 17 16 14 13 13 14 16 17 19 15 13 13 16 18 19 18
9 13 6 2 3 3 11 10 8 12 13 12 15 16 14 15 13 12 12 12 13 13 14 14 13 14 14 13 12 12 11 12 12 16 18 15 14 15 15 14 14 14 16 16 18 14 12 15 19
12 4 6 7 4 6 9 10 5 8 13 14 16 16 15 13 12 11 11 11 11 12 13 14 14 13 14 11 11 11 11 12 12 14 18 16 14 15 16 15 16 15 15 17 17 17 18 19 17
12 6 6 3 7 9 1 8 8 9 13 15 16 14 13 11 12 12 12 11 11 12 13 13 13 13 13 12 11 11 12 12 12 13 16 17 16 16 16 16 15 15 16 17 18 18 19 20 20
6 8 9 10 12 9 11 5 12 10 13 14 14 14 12 12 12 12 11 11 11 11 11 11 12 12 11 11 11 11 11 11 11 12 15 16 16 16 16 15 15 16 17 17 17 19 20 20 20
11 12 14 14 14 11 14 15 18 19 16 15 14 12 11 11 11 10 10 10 10 10 9 10 10 11 11 9 9 9 10 10 11 11 13 16 16 17 17 15 15 16 18 18 17 18 18 20 21
12 15 15 18 17 14 14 18 19 17 18 17 16 13 12 12 12 10 10 10 9 9 9 9 9 9 8 8 7 7 9 8 9 10 12 15 16 17 17 15 15 18 17 17 18 19 20 20 22
17 14 19 9 12 12 16 17 15 17 17 17 16 15 14 12 12 11 10 10 9 9 8 8 9 9 9 8 6 7 8 9 9 10 11 14 14 16 16 15 16 18 17 16 17 19 19 22 23
16 17 17 15 14 14 16 17 16 17 18 18 17 16 15 14 13 13 11 10 10 9 8 8 8 9 7 8 7 6 8 9 9 10 12 14 14 16 16 14 16 17 17 17 18 20 20 20 23
19 15 18 12 9 10 16 18 19 17 18 18 18 18 17 16 16 14 12 11 10 8 8 7 8 9 8 9 9 7 8 8 9 11 12 14 15 16 16 16 16 16 17 18 18 19 21 22 22
16 17 20 17 6 4 16 14 14 18 20 20 20 19 18 16 15 15 14 11 9 8 7 7 7 8 9 7 8 7 8 8 8 10 11 12 14 14 14 16 17 18 18 17 19 20 21 20 20
17 18 16 16 8 12 16 15 17 17 18 19 19 19 18 18 16 14 15 13 10 8 7 7 7 7 9 9 8 9 8 9 10 12 12 15 14 15 15 15 17 18 17 18 19 19 19 20 20
16 17 16 14 12 14 18 10 16 22 22 21 20 20 19 19 17 15 16 14 12 9 7 7 7 7 7 9 8 9 10 11 12 13 14 16 15 15 16 16 17 18 18 17 18 18 19 19 19
15 5 9 15 15 16 16 8 15 22 19 24 24 22 20 19 18 17 18 16 13 11 8 7 6 6 6 7 8 9 10 11 12 14 16 15 15 14 15 16 19 18 18 18 19 20 20 16 19
4 8 8 10 11 15 18 16 13 14 24 20 21 22 20 19 18 18 19 16 14 11 9 7 6 5 4 5 7 8 9 12 12 14 14 14 15 15 16 17 18 18 19 19 21 19 19 20 20
13 12 8 10 11 14 10 15 17 7 9 14 19 22 21 20 19 18 17 18 16 13 11 8 6 4 3 4 6 7 9 10 11 13 14 16 15 16 16 19 20 19 20 20 21 21 20 19 20
19 19 11 13 13 15 13 9 10 7 11 6 5 18 20 21 19 19 20 21 17 14 12 9 6 4 3 4 5 7 9 10 10 12 13 14 16 16 18 19 20 20 21 19 21 20 20 20 20
18 20 22 20 20 11 13 16 10 10 10 10 10 16 19 20 20 20 22 21 18 15 12 9 6 4 3 3 5 7 9 10 11 12 12 13 15 17 18 19 19 20 21 20 21 21 21 20 22
20 9 12 10 12 21 19 19 17 13 16 15 14 16 18 19 20 18 20 19 17 15 13 9 6 4 2 4 6 8 9 9 10 11 12 14 15 16 17 18 19 20 20 21 21 22 21 22 23
13 16 15 13 15 12 15 16 8 6 14 15 15 16 19 20 19 18 19 21 17 15 13 10 6 4 2 3 5 7 7 8 9 11 12 13 15 16 16 18 19 20 20 20 22 21 22 25 25
9 15 18 10 15 9 12 19 6 4 3 11 14 16 16 17 18 17 20 21 18 16 13 10 7 4 1 3 5 6 7 8 8 10 12 13 15 16 16 17 18 18 19 20 21 19 24 26 27
Wind_Direction
306 293 274 258 241 234 186 128 83 126 106 113 67 56 73 44 31 97 89 43 48 65 77 70 88 94 105 105 99 93 85 64 34 25 23 11 5 340 313 320 308 314 319 329 322 328 308 312 294
296 287 243 269 252 219 133 113 190 89 100 100 105 110 74 70 39 93 46 27 56 61 62 69 67 74 79 90 98 104 102 88 61 27 8 351 345 331 319 317 312 314 319 316 311 298 294 297 287
296 267 268 237 247 332 119 163 96 116 135 118 77 60 41 44 42 34 0 34 57 64 67 76 80 78 74 77 76 78 78 72 32 13 341 328 322 315 316 310 306 302 310 312 305 294 295 291 283
286 211 237 250 231 36 100 124 132 151 153 114 110 89 98 38 55 357 358 58 78 73 66 78 85 83 81 77 72 70 71 58 21 353 328 316 319 312 309 303 301 299 294 296 295 294 298 298 291
241 261 260 244 83 122 83 132 172 148 108 137 128 96 88 56 56 54 63 71 73 69 66 58 72 75 73 71 71 67 55 41 21 337 317 307 303 294 297 301 296 292 290 293 295 298 300 297 291
257 265 250 205 132 145 120 165 189 136 131 91 100 107 77 90 75 67 73 75 72 68 59 57 43 51 56 71 72 71 66 59 34 5 320 311 302 297 288 289 295 296 292 289 286 288 293 293 290
255 261 272 8 127 166 134 158 179 139 118 54 122 105 104 114 107 98 87 80 74 70 66 56 50 42 27 34 60 59 50 34 15 5 345 327 330 312 301 298 298 293 293 294 293 292 289 288 288
275 272 270 231 170 150 142 121 182 152 85 113 356 144 155 132 132 117 98 83 71 63 59 54 50 45 40 36 35 32 35 33 22 8 4 5 15 337 333 340 303 295 286 289 288 289 290 286 284
262 252 236 205 203 129 149 151 70 95 121 72 58 73 110 138 140 127 114 94 79 62 55 48 44 43 40 35 33 31 28 27 26 18 9 8 359 350 343 322 312 291 298 293 288 287 285 285 284
253 256 272 77 205 137 172 170 149 136 132 108 106 109 126 139 143 133 113 92 74 64 55 49 47 44 44 40 32 30 27 26 22 16 13 5 359 352 353 347 350 352 325 323 302 306 299 286 276
243 260 49 129 97 162 183 177 165 183 184 154 142 136 135 129 122 111 97 86 81 70 61 52 49 49 54 43 44 39 33 29 22 16 18 8 5 357 354 350 348 342 338 339 332 319 317 298 286
272 255 270 151 133 240 189 147 149 10 59 104 129 133 134 131 119 115 106 94 83 74 64 55 47 46 45 49 42 34 28 26 21 15 14 10 5 359 357 353 351 347 341 337 333 326 322 309 309
253 248 222 151 186 218 229 181 159 114 104 115 125 135 128 124 125 117 110 98 88 72 61 52 46 41 40 39 35 30 26 18 17 13 11 11 6 357 353 350 349 346 342 339 333 327 322 315 311
351 283 241 210 213 191 209 152 163 146 136 135 143 141 139 141 132 126 117 106 94 82 67 56 48 41 38 36 31 28 19 14 12 8 6 7 5 356 351 347 345 343 341 337 333 329 324 317 312
259 254 231 233 228 200 222 192 216 147 159 155 153 148 144 138 134 114 113 107 102 88 73 58 46 38 35 32 29 24 12 12 8 4 1 3 1 355 350 344 344 341 340 337 336 333 328 323 319
248 235 253 219 208 215 203 225 177 162 167 167 162 161 154 148 137 132 124 112 101 89 73 60 50 41 40 34 30 26 15 13 7 4 360 357 356 354 349 344 342 337 338 336 336 336 331 326 322
229 250 223 175 198 195 211 242 145 171 182 173 174 172 165 156 154 147 137 121 105 89 76 63 47 40 38 31 33 28 16 14 9 4 0 356 354 353 352 344 341 341 339 338 337 333 331 324 321
232 224 241 259 177 220 206 239 156 184 192 187 186 182 176 175 167 156 142 129 115 99 86 75 59 45 43 38 32 26 12 9 6 3 359 358 354 352 353 346 343 343 340 339 338 335 332 327 323
281 285 288 247 152 219 226 236 171 188 201 199 195 191 187 185 158 163 150 144 125 113 98 81 66 49 48 38 28 16 4 2 1 358 355 356 353 350 350 345 342 343 340 337 338 336 332 331 333
255 256 259 261 145 239 259 236 216 182 207 206 202 197 191 181 171 169 164 152 138 125 113 96 76 56 47 41 26 10 359 354 351 348 348 348 347 347 345 341 340 340 337 337 339 339 335 329 337
244 247 251 258 209 219 267 247 230 189 206 214 208 201 195 187 183 177 170 161 151 136 123 105 84 65 47 35 21 10 359 352 348 346 344 343 343 345 343 341 340 337 337 334 334 336 337 327 330
252 234 249 261 242 254 196 266 246 192 204 209 204 205 196 190 187 180 179 171 160 147 130 109 86 67 48 34 26 13 2 352 344 339 337 338 337 338 339 339 338 334 333 330 329 327 326 324 320
256 310 248 243 249 255 225 249 257 190 200 210 206 202 199 190 187 183 183 175 165 154 142 123 107 83 55 39 27 13 2 349 339 336 334 333 334 334 335 335 336 332 329 329 326 325 326 323 316
253 246 239 246 248 248 243 249 252 211 201 212 203 203 198 188 189 185 185 170 163 156 151 139 133 101 70 42 24 12 358 345 339 335 330 333 330 332 333 332 332 330 328 328 325 323 320 322 317
209 225 229 225 223 244 243 230 237 145 172 219 200 196 191 191 189 187 179 182 169 166 161 155 145 121 81 42 17 1 351 343 338 336 335 331 332 332 332 332 331 329 327 324 323 321 319 318 315
218 220 227 237 249 262 226 236 247 45 127 134 234 181 185 193 187 188 182 188 173 167 164 161 152 131 82 36 7 355 351 346 339 336 332 329 330 328 328 329 327 325 325 327 322 322 320 320 316
225 222 240 265 280 269 264 260 159 161 164 167 175 175 184 190 187 189 185 185 172 172 165 161 154 127 95 29 3 355 349 343 338 333 331 330 327 326 329 328 325 324 326 327 320 321 322 324 318
246 229 237 231 251 247 253 257 273 188 183 176 188 188 186 188 186 188 183 175 177 173 162 156 148 136 91 17 2 350 343 340 334 333 332 330 327 327 330 328 325 324 328 326 324 325 327 321 321
216 238 238 242 234 256 267 264 304 348 181 185 185 188 186 187 184 186 177 176 179 172 166 159 154 140 76 1 353 349 340 336 336 333 332 332 328 330 331 327 328 326 329 327 326 328 325 323 319
284 237 228 238 247 251 260 261 82 30 154 170 183 186 186 184 186 184 175 175 178 176 167 161 157 139 83 4 346 342 335 334 342 336 334 334 329 331 330 329 329 325 328 327 329 333 326 323 320